Weather History for KTVR - May, 2012

Change the Weather History Date:

Friday, May 11, 2012

  Actual Average Record
Temperature  
Mean Temperature 66 °F 72 °F  
Max Temperature 75 °F 83 °F 92 °F (2002)
Min Temperature 56 °F 61 °F 45 °F (1961)
Degree Days  
Heating Degree Days 0 0  
Month to date heating degree days 0 9  
Since 1 July heating degree days 1824 2350  
Cooling Degree Days 1 7  
Month to date cooling degree days 104 65  
Year to date cooling degree days 354 183  
Growing Degree Days 16 (Base 50)    
Moisture  
Dew Point 57 °F    
Average Humidity 72    
Maximum Humidity 93    
Minimum Humidity 50    
Precipitation  
Precipitation 0.02 in 0.16 in 1.59 in (1987)
Month to date precipitation 2.33 1.92  
Year to date precipitation 22.80 22.26  
Sea Level Pressure  
Sea Level Pressure 30.04 in    
Wind  
Wind Speed 7 mph (ESE)    
Max Wind Speed 15 mph    
Max Gust Speed 20 mph    
Visibility 10 miles    
Events Rain    
T = Trace of Precipitation, MM = Missing Value Source: NWS Daily Summary

Daily Weather History Graph

Daily Weather History Graph

Search for Another Location

Airport or City:

Trip Planner

Search our weather history database for the weather conditions in past years. The results will help you decide how hot, cold, wet, or windy it might be!

Date:

Astronomy

May. 11, 2012 Rise Set
Actual Time 6:08 AM CDT 7:52 PM CDT
Civil Twilight 5:41 AM CDT 8:19 PM CDT
Nautical Twilight 5:09 AM CDT 8:51 PM CDT
Astronomical Twilight 4:35 AM CDT 9:26 PM CDT
Moon 12:34 AM CDT (5/11) 11:38 AM CDT (5/11)
Length of Visible Light 14h 37m
Length of Day
13h 44m
Waning Gibbous, 63% of the Moon is Illuminated
May 11
Waning Gibbous
May 12
Last Quarter
May 20
New
May 28
First Quarter
Jun 4
Full

Hourly Weather History & Observations

Time (CDT) Temp. Dew Point Humidity Pressure Visibility Wind Dir Wind Speed Gust Speed Precip Events Conditions
12:53 AM 57.0 °F 55.0 °F 93% 29.98 in 10.0 mi SE 3.5 mph - N/A   Clear
1:53 AM 57.0 °F 55.0 °F 93% 29.96 in 10.0 mi ESE 3.5 mph - N/A   Clear
2:53 AM 59.0 °F 55.0 °F 87% 29.97 in 10.0 mi SSE 4.6 mph - N/A   Clear
3:53 AM 62.1 °F 55.9 °F 80% 29.97 in 10.0 mi ESE 5.8 mph - N/A   Clear
4:53 AM 62.1 °F 55.0 °F 78% 29.98 in 10.0 mi SE 5.8 mph - N/A   Clear
5:53 AM 61.0 °F 53.1 °F 75% 29.98 in 10.0 mi SE 6.9 mph - N/A   Clear
6:53 AM 61.0 °F 54.0 °F 78% 30.00 in 10.0 mi SE 5.8 mph - N/A   Clear
7:53 AM 64.9 °F 54.0 °F 68% 30.03 in 10.0 mi ESE 8.1 mph - N/A   Clear
8:53 AM 68.0 °F 55.0 °F 63% 30.06 in 10.0 mi SSE 4.6 mph - N/A   Clear
9:53 AM 71.1 °F 55.9 °F 59% 30.07 in 10.0 mi SE 6.9 mph - N/A   Clear
10:53 AM 73.0 °F 55.0 °F 53% 30.08 in 10.0 mi SSE 10.4 mph - N/A   Clear
11:53 AM 73.9 °F 55.9 °F 53% 30.08 in 10.0 mi SE 12.7 mph - N/A   Clear
12:53 PM 75.0 °F 55.0 °F 50% 30.07 in 10.0 mi SE 10.4 mph - N/A   Clear
1:53 PM 73.9 °F 57.0 °F 55% 30.07 in 10.0 mi SE 5.8 mph - N/A   Mostly Cloudy
2:53 PM 73.0 °F 59.0 °F 61% 30.06 in 10.0 mi SE 4.6 mph - 0.00 in   Overcast
3:53 PM 72.0 °F 60.1 °F 66% 30.04 in 10.0 mi ENE 6.9 mph - 0.00 in Rain Light Rain
4:53 PM 69.1 °F 60.1 °F 73% 30.03 in 10.0 mi East 6.9 mph - 0.02 in Rain Light Rain
5:53 PM 68.0 °F 60.1 °F 76% 30.05 in 10.0 mi SE 4.6 mph - 0.00 in   Overcast
6:53 PM 68.0 °F 61.0 °F 78% 30.04 in 10.0 mi East 4.6 mph - 0.00 in   Overcast
7:53 PM 66.9 °F 57.9 °F 73% 30.07 in 10.0 mi East 9.2 mph - N/A   Overcast
8:53 PM 66.0 °F 59.0 °F 78% 30.07 in 10.0 mi NE 5.8 mph - N/A   Overcast
9:53 PM 66.0 °F 60.1 °F 81% 30.07 in 10.0 mi NNE 10.4 mph - N/A   Overcast
10:53 PM 64.9 °F 59.0 °F 81% 30.09 in 10.0 mi NE 9.2 mph - N/A   Overcast
11:53 PM 64.9 °F 59.0 °F 81% 30.08 in 10.0 mi NE 6.9 mph - N/A   Overcast